Marathon, FL

7:53 AM EDT on May 29, 2017 (GMT -0400)
Florida Keys Marathon

Weather History for KMTH - June, 2012

Change the Weather History Date:

Monday, June 25, 2012

  Actual Average Record
Temperature  
Mean Temperature 85 °F 85 °F  
Max Temperature 88 °F 91 °F 93 °F (1997)
Min Temperature 82 °F 79 °F 72 °F (2003)
Degree Days  
Heating Degree Days 0 0  
Month to date heating degree days 0 0  
Since 1 June heating degree days 0 0  
Since 1 July heating degree days 33 81  
Cooling Degree Days 20 20  
Month to date cooling degree days 459 495  
Year to date cooling degree days 2298 2038  
Since 1 June cooling degree days 459 495  
Growing Degree Days 35 (Base 50)    
Moisture  
Dew Point 76 °F    
Average Humidity 74    
Maximum Humidity 80    
Minimum Humidity 68    
Precipitation  
Precipitation 0.00 in 0.21 in 1.52 in (2006)
Month to date precipitation 5.24 4.60  
Year to date precipitation 24.75 16.54  
Snow  
Snow 0.00 in - - ()
Month to date snowfall 0.0  
Since 1 June snowfall 0.0  
Since 1 July snowfall 0.0  
Snow Depth 0.00 in    
Sea Level Pressure  
Sea Level Pressure 29.84 in    
Wind  
Wind Speed 11 mph (SSW)    
Max Wind Speed 17 mph    
Max Gust Speed 28 mph    
Visibility 8 miles    
Events      
T = Trace of Precipitation, MM = Missing Value Source: NWS Daily Summary

Daily Weather History Graph

Daily Weather History Graph

Search for Another Location

Airport or City:

Trip Planner

Search our weather history database for the weather conditions in past years. The results will help you decide how hot, cold, wet, or windy it might be!

Date:

Astronomy

Jun. 25, 2012 Rise Set
Actual Time 6:36 AM EDT 8:17 PM EDT
Civil Twilight 6:11 AM EDT 8:42 PM EDT
Nautical Twilight 5:40 AM EDT 9:13 PM EDT
Astronomical Twilight 5:08 AM EDT 9:45 PM EDT
Moon 12:06 PM EDT (6/25) No Moon Set
Length of Visible Light 14h 31m
Length of Day
13h 40m
Waxing Crescent, 34% of the Moon is Illuminated
Jun 25
Waxing Crescent
Jun 26
First Quarter
Jul 3
Full
Jul 10
Last Quarter
Jul 19
New

Hourly Weather History & Observations

Time (EDT) Temp. Heat Index Dew Point Humidity Pressure Visibility Wind Dir Wind Speed Gust Speed Precip Events Conditions
12:53 AM 82.9 °F 90.2 °F 75.0 °F 77% 29.88 in 9.0 mi South 11.5 mph 26.5 mph N/A   Clear
1:53 AM 82.9 °F 90.2 °F 75.0 °F 77% 29.87 in 9.0 mi South 12.7 mph 25.3 mph N/A   Clear
2:53 AM 82.9 °F 90.2 °F 75.0 °F 77% 29.85 in 9.0 mi South 10.4 mph 26.5 mph N/A   Clear
3:53 AM 82.0 °F 88.6 °F 75.0 °F 79% 29.83 in 9.0 mi South 10.4 mph 21.9 mph N/A   Clear
4:53 AM 82.0 °F 88.6 °F 75.0 °F 79% 29.85 in 9.0 mi South 11.5 mph 21.9 mph N/A   Partly Cloudy
5:53 AM 82.0 °F 88.6 °F 75.0 °F 79% 29.85 in 9.0 mi South 11.5 mph 21.9 mph N/A   Scattered Clouds
6:53 AM 82.0 °F 87.9 °F 73.9 °F 76% 29.86 in 8.0 mi South 13.8 mph 27.6 mph N/A   Partly Cloudy
7:53 AM 82.0 °F 87.9 °F 73.9 °F 76% 29.88 in 8.0 mi South 15.0 mph 24.2 mph N/A   Partly Cloudy
8:53 AM 84.0 °F 92.6 °F 75.9 °F 76% 29.87 in 8.0 mi South 12.7 mph 23.0 mph N/A   Scattered Clouds
9:08 AM 82.4 °F 89.5 °F 75.2 °F 79% 29.87 in 7.0 mi South 12.7 mph 25.3 mph N/A   Mostly Cloudy
9:29 AM 82.4 °F 89.5 °F 75.2 °F 79% 29.87 in 8.0 mi South 11.5 mph 23.0 mph N/A   Scattered Clouds
9:53 AM 84.0 °F 92.6 °F 75.9 °F 76% 29.86 in 8.0 mi South 12.7 mph 25.3 mph N/A   Partly Cloudy
10:53 AM 84.0 °F 91.9 °F 75.0 °F 74% 29.88 in 8.0 mi South 11.5 mph 23.0 mph N/A   Partly Cloudy
11:53 AM 84.9 °F 94.1 °F 75.9 °F 74% 29.88 in 8.0 mi SSW 11.5 mph 24.2 mph N/A   Clear
12:53 PM 88.0 °F 100.2 °F 77.0 °F 70% 29.87 in 9.0 mi SSW 13.8 mph 26.5 mph N/A   Clear
1:53 PM 88.0 °F 98.5 °F 75.9 °F 67% 29.85 in 9.0 mi SSW 12.7 mph 24.2 mph N/A   Clear
2:53 PM 87.1 °F 98.8 °F 77.0 °F 72% 29.83 in 8.0 mi SSW 12.7 mph 19.6 mph N/A   Clear
3:53 PM 84.9 °F 95.3 °F 77.0 °F 77% 29.81 in 8.0 mi South 10.4 mph - N/A   Clear
4:53 PM 84.0 °F 93.7 °F 77.0 °F 79% 29.80 in 7.0 mi South 8.1 mph - N/A   Clear
5:53 PM 84.9 °F 95.3 °F 77.0 °F 77% 29.81 in 7.0 mi South 5.8 mph - N/A   Clear
6:53 PM 84.0 °F 93.7 °F 77.0 °F 79% 29.81 in 8.0 mi South 5.8 mph - N/A   Clear
7:53 PM 84.0 °F 92.6 °F 75.9 °F 76% 29.81 in 8.0 mi SSW 6.9 mph - N/A   Clear
8:53 PM 84.0 °F 92.6 °F 75.9 °F 76% 29.81 in 9.0 mi SSW 10.4 mph 16.1 mph N/A   Clear
9:53 PM 84.0 °F 93.7 °F 77.0 °F 79% 29.81 in 9.0 mi SSW 9.2 mph - N/A   Scattered Clouds
10:53 PM 82.9 °F 90.8 °F 75.9 °F 79% 29.80 in 10.0 mi SSW 13.8 mph 20.7 mph N/A   Clear
11:53 PM 82.9 °F 88.0 °F 72.0 °F 69% 29.80 in 10.0 mi SSW 13.8 mph 27.6 mph N/A   Clear